FW4340 Weather Reports


Display with metric or nautical units.
time (UTC)temp
F
wind
direction
speed
MPH
gust
MPH
rain 1hr
in
rain 24hr
in
rain mn
in
humidity
%
barometer
mb
20260507221536 51 196 8.0 15.0 0.00 0.00 0.00 78 1012.2
20260507220038 51 199 12.0 18.0 0.00 0.00 0.00 78 1012.1
20260507214533 51 215 9.0 14.0 0.00 0.00 0.00 77 1012.1
20260507213034 51 208 10.0 16.0 0.00 0.00 0.00 77 1012.0
20260507211540 51 189 10.0 15.0 0.00 0.00 0.00 76 1012.1
20260507210038 52 193 8.0 11.0 0.00 0.00 0.00 75 1012.0
20260507204536 52 208 9.0 12.0 0.00 0.00 0.00 74 1012.0
20260507203031 52 195 7.0 10.0 0.00 0.00 0.00 73 1011.9
20260507201530 52 220 7.0 12.0 0.00 0.00 0.00 72 1011.8
20260507200031 52 208 6.0 11.0 0.00 0.00 0.00 73 1011.6
20260507194545 53 189 6.0 9.0 0.00 0.00 0.00 72 1011.5
20260507193030 54 199 7.0 10.0 0.00 0.00 0.00 72 1011.4
20260507191528 54 206 3.0 9.0 0.00 0.00 0.00 72 1011.3
20260507190040 55 203 4.0 8.0 0.00 0.00 0.00 72 1011.2
20260507184538 54 189 3.0 7.0 0.00 0.00 0.00 73 1011.2
20260507183030 55 184 5.0 10.0 0.00 0.00 0.00 71 1011.0
20260507181526 55 214 3.0 7.0 0.00 0.00 0.00 71 1010.9
20260507180028 55 222 2.0 9.0 0.00 0.00 0.00 71 1010.9
20260507174532 55 258 7.0 10.0 0.00 0.00 0.00 72 1010.9
20260507173040 55 226 4.0 8.0 0.00 0.00 0.00 73 1011.0
20260507171524 55 211 5.0 10.0 0.00 0.00 0.00 74 1011.0
20260507170024 55 209 6.0 12.0 0.00 0.00 0.00 75 1011.0
20260507164533 55 210 5.0 10.0 0.00 0.00 0.00 75 1011.0
20260507163025 55 214 6.0 11.0 0.00 0.00 0.00 74 1010.9
20260507161523 55 192 9.0 16.0 0.00 0.00 0.00 70 1011.0
20260507160026 56 185 11.0 19.0 0.00 0.00 0.00 70 1011.1
20260507154521 55 210 9.0 14.0 0.00 0.00 0.00 72 1011.1
20260507153026 55 98 3.0 7.0 0.00 0.00 0.00 75 1011.1
20260507151519 54 86 4.0 7.0 0.00 0.00 0.00 78 1011.2
20260507150018 53 119 2.0 4.0 0.00 0.00 0.00 79 1011.2
20260507144517 54 109 2.0 3.0 0.00 0.00 0.00 80 1011.4
20260507143022 53 104 0.0 4.0 0.00 0.00 0.00 80 1011.4
20260507141519 54 62 4.0 5.0 0.00 0.00 0.00 81 1011.7
20260507140020 54 24 1.0 2.0 0.00 0.00 0.00 80 1011.7
20260507134515 54 16 1.0 3.0 0.00 0.00 0.00 80 1011.5
20260507133015 54 33 2.0 5.0 0.00 0.00 0.00 80 1011.6
20260507131518 54 359 4.0 5.0 0.00 0.00 0.00 78 1011.7
20260507130013 54 359 2.0 5.0 0.00 0.00 0.00 77 1011.6
20260507124519 54 359 3.0 6.0 0.00 0.00 0.00 77 1011.6
20260507123014 55 343 2.0 5.0 0.00 0.00 0.00 74 1011.7
20260507121514 56 338 4.0 8.0 0.00 0.00 0.00 73 1011.6
20260507120011 57 359 4.0 8.0 0.00 0.00 0.00 71 1011.7
20260507114511 59 254 2.0 10.0 0.00 0.00 0.00 65 1011.7
20260507113024 58 213 2.0 7.0 0.00 0.00 0.00 68 1011.6
20260507111504 56 213 5.0 10.0 0.00 0.00 0.00 69 1011.7
20260507110004 56 212 4.0 7.0 0.00 0.00 0.00 69 1011.8
20260507104559 56 201 6.0 10.0 0.00 0.00 0.00 70 1011.9
20260507103058 55 193 8.0 11.0 0.00 0.00 0.00 70 1011.9
20260507101554 54 174 9.0 15.0 0.00 0.00 0.00 71 1011.9
20260507100051 55 195 4.0 9.0 0.00 0.00 0.00 70 1012.0
20260507094547 55 191 3.0 10.0 0.00 0.00 0.00 70 1012.0
20260507093042 55 218 5.0 11.0 0.00 0.00 0.00 71 1011.9
20260507091542 54 231 4.0 9.0 0.00 0.00 0.00 73 1012.0
20260507090035 52 224 3.0 8.0 0.00 0.00 0.00 76 1011.9
20260507084542 51 193 7.0 12.0 0.00 0.00 0.00 74 1011.8
20260507083035 52 193 10.0 15.0 0.00 0.00 0.00 73 1011.7
20260507081538 52 223 6.0 11.0 0.00 0.00 0.00 74 1011.9
20260507080030 51 185 5.0 11.0 0.00 0.00 0.00 75 1011.9
20260507074530 51 215 2.0 8.0 0.00 0.00 0.00 77 1011.9
20260507073025 50 173 5.0 8.0 0.00 0.00 0.00 78 1011.7
20260507071522 49 175 6.0 10.0 0.00 0.00 0.00 78 1011.7
20260507070021 49 195 8.0 12.0 0.00 0.00 0.00 78 1011.6
20260507064521 49 193 9.0 13.0 0.00 0.00 0.00 78 1011.6
20260507063024 49 193 9.0 13.0 0.00 0.00 0.00 78 1011.6
20260507061519 49 203 6.0 9.0 0.00 0.00 0.00 78 1011.7
20260507060018 49 189 8.0 11.0 0.00 0.00 0.00 79 1011.6
20260507054517 48 193 6.0 15.0 0.00 0.00 0.00 79 1011.6
20260507053015 48 193 6.0 11.0 0.00 0.00 0.00 78 1011.6
20260507051515 48 214 6.0 10.0 0.00 0.00 0.00 78 1011.5
20260507050023 48 193 5.0 15.0 0.00 0.00 0.00 78 1011.5
20260507044514 48 191 9.0 15.0 0.00 0.00 0.00 79 1011.4
20260507043021 48 183 10.0 16.0 0.00 0.00 0.00 79 1011.4
20260507041512 48 185 8.0 13.0 0.00 0.00 0.00 78 1011.5
20260507040011 48 197 9.0 18.0 0.00 0.00 0.00 78 1011.4
20260507034519 47 187 12.0 16.0 0.00 0.00 0.00 78 1011.3
20260507033009 47 199 13.0 17.0 0.00 0.00 0.00 78 1011.4
20260507031507 47 190 8.0 12.0 0.00 0.00 0.00 78 1011.4
20260507030008 47 183 9.0 13.0 0.00 0.00 0.00 77 1011.4
20260507024513 47 183 10.0 15.0 0.00 0.00 0.00 77 1011.4
20260507023008 48 185 8.0 14.0 0.00 0.00 0.00 76 1011.5
20260507021503 48 187 9.0 15.0 0.00 0.00 0.00 76 1011.5
20260507020004 47 187 11.0 17.0 0.00 0.00 0.00 76 1011.5
20260507014502 47 194 11.0 18.0 0.00 0.00 0.00 76 1011.6
20260507013001 47 166 11.0 15.0 0.00 0.00 0.00 76 1011.5
20260507011601 48 187 11.0 16.0 0.00 0.00 0.00 75 1011.6
20260507010057 48 190 10.0 14.0 0.00 0.00 0.00 75 1011.6
20260507004554 48 187 9.0 14.0 0.00 0.00 0.00 74 1011.7
20260507003106 48 193 10.0 15.0 0.00 0.00 0.00 75 1011.8
20260507001611 48 191 8.0 12.0 0.00 0.00 0.00 75 1011.9
20260507000050 48 184 9.0 12.0 0.00 0.00 0.00 75 1012.0
20260506234553 48 212 7.0 10.0 0.00 0.00 0.00 76 1012.1
20260506233045 47 220 7.0 12.0 0.00 0.00 0.00 76 1011.9
20260506231544 48 226 3.0 7.0 0.00 0.00 0.00 76 1011.8
20260506230052 48 205 3.0 4.0 0.00 0.00 0.00 75 1011.8
20260506224537 49 224 4.0 7.0 0.00 0.00 0.00 74 1011.8
20260506223037 49 194 8.0 11.0 0.00 0.00 0.00 72 1011.7